Location: Godzisko
(49.9648°N, 19.4576°E)
Time: 07:19:18
(UTC+00:00)

NOSS 3-4 (A) - Pass Details

Date: 20 April 2021
Orbit: 872 x 1340 km, 63.4° (Epoch: 27 April)

Event Time Altitude Azimuth Distance (km) Brightness Sun altitude
Rises 00:40:52 0° 316° (NW) 3,747 6.7 -23.1°
Reaches altitude 10° 00:43:22 10° 319° (NW) 2,855 6.1 -22.9°
Maximum altitude 00:50:10 69° 43° (NE) 1,211 4.1 -22.3°
Drops below altitude 10° 00:57:47 10° 126° (SE) 3,186 6.2 -21.6°
Sets 01:00:43 0° 129° (SE) 4,206 6.8 -21.3°
